Flag for U.S.A. Weather past 2 weeks in St. Paul, Minnesota, U.S.A.

Now
44 °F

Clear.


Feels Like: 44 °F
Forecast: 45 / 59 °F
Wind: No wind

Location: St. Paul Downtown Holman Field

Current Time: Oct 20, 2014 at 7:05:57 AM

Latest Report: Oct 20, 2014 at 5:53 AM


Visibility: 10 mi

Pressure: 29.94 "Hg

Humidity: 93%

Dew point: 42 °F

Location of St. PaulLocation

Historic Weather in St. Paul — Graph

°F

St. Paul temperature yesterday

Maximum temperature yesterday: 67 °F (at 4:53 PM)
Minimum temperature yesterday: 39 °F (at 12:53 AM)
Average temperature yesterday: 52 °F

Past Weeks' High & Low Weather Summary

 TemperatureHumidityPressure
High71 °F (Oct 16, 2:53 PM)100% (Oct 11, 5:53 AM)30.30 "Hg (Oct 11, 5:53 AM)
Low33 °F (Oct 10, 6:53 AM)31% (Oct 15, 3:53 PM)29.43 "Hg (Oct 6, 5:53 PM)
Average49 °F69%29.90 "Hg
* Reported Oct 5 5:53 AM — Oct 20 5:53 AM, St. Paul, Weather by CustomWeather, © 2014

Note: Actual official high and low records may vary slightly from our data, if they occured in-between our weather recording intervals... More about our weather records

Advertising

St. Paul weather history for previous 24 hours

 ConditionsComfort  
Time TempWeatherWind HumidityBarometerVisibility
5:53 AM
Oct 20
44 °FClear.No wind93%29.94 "Hg10 mi
4:53 AM46 °FClear.No wind89%29.93 "Hg10 mi
3:53 AM48 °FClear.5 mph77%29.91 "Hg10 mi
2:53 AM49 °FClear.7 mph77%29.90 "Hg10 mi
1:53 AM50 °FClear.9 mph74%29.89 "Hg10 mi
12:53 AM53 °FClear.10 mph69%29.87 "Hg10 mi
11:53 PM
Oct 19
54 °FClear.10 mph67%29.85 "Hg10 mi
9:53 PM59 °FClear.13 mph54%29.82 "Hg10 mi
8:53 PM60 °FClear.9 mph53%29.80 "Hg10 mi
7:53 PM59 °FClear.9 mph60%29.80 "Hg10 mi
6:53 PM61 °FSunny.5 mph54%29.78 "Hg10 mi
5:53 PM66 °FSunny.9 mph45%29.77 "Hg10 mi
4:53 PM67 °FSunny.10 mph45%29.77 "Hg10 mi
3:53 PM66 °FSunny.9 mph47%29.79 "Hg10 mi
2:53 PM64 °FSunny.9 mph49%29.81 "Hg10 mi
1:53 PM61 °FSunny.13 mph54%29.83 "Hg10 mi
12:53 PM59 °FSunny.14 mph56%29.85 "Hg10 mi
11:53 AM55 °FSunny.10 mph64%29.87 "Hg10 mi
10:53 AM53 °FPassing clouds.12 mph64%29.90 "Hg10 mi
9:53 AM50 °FSunny.8 mph74%29.93 "Hg10 mi
8:53 AM46 °FSunny.7 mph83%29.95 "Hg10 mi
7:53 AM44 °FClear.6 mph85%29.96 "Hg10 mi
Weather by CustomWeather, © 2014

See weather overviewHow to use our weather pages